<?xml version="1.0" encoding="UTF-8" standalone="no" ?>
<gpx xmlns="http://www.topografix.com/GPX/1/1" xmlns:xsi="http://www.w3.org/2001/XMLSchema-instance" xsi:schemaLocation="http://www.topografix.com/GPX/1/1 http://www.topografix.com/GPX/1/1/gpx.xsd" version="1.1" creator="VisuGPX - https://www.visugpx.com">
  <metadata>
    <name>verlin</name>
  </metadata>
  <trk>
    <name><![CDATA[verlin]]></name>
    <trkseg>
      <trkpt lat="48.01706" lon="3.23258">
        <ele>113.2</ele>
        <time>2020-10-15T09:29:41Z</time>
      </trkpt>
      <trkpt lat="48.01782" lon="3.23204">
        <ele>114.3</ele>
        <time>2020-10-15T09:29:41Z</time>
      </trkpt>
      <trkpt lat="48.01782" lon="3.23204">
        <ele>114.3</ele>
        <time>2020-10-15T09:29:41Z</time>
      </trkpt>
      <trkpt lat="48.01808" lon="3.2323">
        <ele>115</ele>
        <time>2020-10-15T09:29:41Z</time>
      </trkpt>
      <trkpt lat="48.0183" lon="3.2322">
        <ele>118.6</ele>
        <time>2020-10-15T09:29:41Z</time>
      </trkpt>
      <trkpt lat="48.01851" lon="3.23282">
        <ele>119.6</ele>
        <time>2020-10-15T09:29:41Z</time>
      </trkpt>
      <trkpt lat="48.0202" lon="3.23276">
        <ele>148.2</ele>
        <time>2020-10-15T09:29:41Z</time>
      </trkpt>
      <trkpt lat="48.02048" lon="3.23224">
        <ele>153.4</ele>
        <time>2020-10-15T09:29:41Z</time>
      </trkpt>
      <trkpt lat="48.02092" lon="3.23064">
        <ele>164.3</ele>
        <time>2020-10-15T09:29:41Z</time>
      </trkpt>
      <trkpt lat="48.02087" lon="3.22568">
        <ele>170.3</ele>
        <time>2020-10-15T09:29:41Z</time>
      </trkpt>
      <trkpt lat="48.0245" lon="3.22473">
        <ele>174</ele>
        <time>2020-10-15T09:29:41Z</time>
      </trkpt>
      <trkpt lat="48.0243" lon="3.22405">
        <ele>175</ele>
        <time>2020-10-15T09:29:41Z</time>
      </trkpt>
      <trkpt lat="48.02458" lon="3.22398">
        <ele>175</ele>
        <time>2020-10-15T09:29:41Z</time>
      </trkpt>
      <trkpt lat="48.02504" lon="3.22437">
        <ele>174.9</ele>
        <time>2020-10-15T09:29:41Z</time>
      </trkpt>
      <trkpt lat="48.0257" lon="3.2244">
        <ele>173.5</ele>
        <time>2020-10-15T09:29:41Z</time>
      </trkpt>
      <trkpt lat="48.0264" lon="3.22437">
        <ele>171</ele>
        <time>2020-10-15T09:29:41Z</time>
      </trkpt>
      <trkpt lat="48.02768" lon="3.2246">
        <ele>168.2</ele>
        <time>2020-10-15T09:29:41Z</time>
      </trkpt>
      <trkpt lat="48.02834" lon="3.22493">
        <ele>167</ele>
        <time>2020-10-15T09:29:41Z</time>
      </trkpt>
      <trkpt lat="48.02941" lon="3.22486">
        <ele>161.6</ele>
        <time>2020-10-15T09:29:41Z</time>
      </trkpt>
      <trkpt lat="48.02969" lon="3.22483">
        <ele>162.2</ele>
        <time>2020-10-15T09:29:41Z</time>
      </trkpt>
      <trkpt lat="48.03174" lon="3.2244">
        <ele>152.3</ele>
        <time>2020-10-15T09:29:41Z</time>
      </trkpt>
      <trkpt lat="48.032" lon="3.22545">
        <ele>144.8</ele>
        <time>2020-10-15T09:29:41Z</time>
      </trkpt>
      <trkpt lat="48.03181" lon="3.22633">
        <ele>143.5</ele>
        <time>2020-10-15T09:29:41Z</time>
      </trkpt>
      <trkpt lat="48.03144" lon="3.22695">
        <ele>142.2</ele>
        <time>2020-10-15T09:29:41Z</time>
      </trkpt>
      <trkpt lat="48.03111" lon="3.22793">
        <ele>140</ele>
        <time>2020-10-15T09:29:41Z</time>
      </trkpt>
      <trkpt lat="48.03111" lon="3.22901">
        <ele>138.6</ele>
        <time>2020-10-15T09:29:41Z</time>
      </trkpt>
      <trkpt lat="48.03144" lon="3.22966">
        <ele>143</ele>
        <time>2020-10-15T09:29:41Z</time>
      </trkpt>
      <trkpt lat="48.03096" lon="3.23198">
        <ele>135.7</ele>
        <time>2020-10-15T09:29:41Z</time>
      </trkpt>
      <trkpt lat="48.03137" lon="3.23175">
        <ele>136.9</ele>
        <time>2020-10-15T09:29:41Z</time>
      </trkpt>
      <trkpt lat="48.03272" lon="3.23243">
        <ele>147.2</ele>
        <time>2020-10-15T09:29:41Z</time>
      </trkpt>
      <trkpt lat="48.03432" lon="3.23377">
        <ele>154.8</ele>
        <time>2020-10-15T09:29:41Z</time>
      </trkpt>
      <trkpt lat="48.03508" lon="3.2341">
        <ele>157.4</ele>
        <time>2020-10-15T09:29:41Z</time>
      </trkpt>
      <trkpt lat="48.03565" lon="3.23593">
        <ele>166</ele>
        <time>2020-10-15T09:29:41Z</time>
      </trkpt>
      <trkpt lat="48.03497" lon="3.23547">
        <ele>169.3</ele>
        <time>2020-10-15T09:29:41Z</time>
      </trkpt>
      <trkpt lat="48.03438" lon="3.23602">
        <ele>175.4</ele>
        <time>2020-10-15T09:29:41Z</time>
      </trkpt>
      <trkpt lat="48.03484" lon="3.23759">
        <ele>178.7</ele>
        <time>2020-10-15T09:29:41Z</time>
      </trkpt>
      <trkpt lat="48.03558" lon="3.24706">
        <ele>185.1</ele>
        <time>2020-10-15T09:29:41Z</time>
      </trkpt>
      <trkpt lat="48.03537" lon="3.24836">
        <ele>182.9</ele>
        <time>2020-10-15T09:29:41Z</time>
      </trkpt>
      <trkpt lat="48.03432" lon="3.24807">
        <ele>182</ele>
        <time>2020-10-15T09:29:41Z</time>
      </trkpt>
      <trkpt lat="48.03406" lon="3.25038">
        <ele>174.8</ele>
        <time>2020-10-15T09:29:41Z</time>
      </trkpt>
      <trkpt lat="48.03456" lon="3.25058">
        <ele>174.9</ele>
        <time>2020-10-15T09:29:41Z</time>
      </trkpt>
      <trkpt lat="48.03508" lon="3.25198">
        <ele>170.8</ele>
        <time>2020-10-15T09:29:41Z</time>
      </trkpt>
      <trkpt lat="48.03447" lon="3.25251">
        <ele>174</ele>
        <time>2020-10-15T09:29:41Z</time>
      </trkpt>
      <trkpt lat="48.03478" lon="3.25283">
        <ele>176.4</ele>
        <time>2020-10-15T09:29:41Z</time>
      </trkpt>
      <trkpt lat="48.03482" lon="3.25348">
        <ele>179.9</ele>
        <time>2020-10-15T09:29:41Z</time>
      </trkpt>
      <trkpt lat="48.03458" lon="3.25492">
        <ele>184.7</ele>
        <time>2020-10-15T09:29:41Z</time>
      </trkpt>
      <trkpt lat="48.03447" lon="3.25597">
        <ele>187</ele>
        <time>2020-10-15T09:29:41Z</time>
      </trkpt>
      <trkpt lat="48.03379" lon="3.25789">
        <ele>190.3</ele>
        <time>2020-10-15T09:29:41Z</time>
      </trkpt>
      <trkpt lat="48.03388" lon="3.26001">
        <ele>191.9</ele>
        <time>2020-10-15T09:29:41Z</time>
      </trkpt>
      <trkpt lat="48.0343" lon="3.26145">
        <ele>191.5</ele>
        <time>2020-10-15T09:29:41Z</time>
      </trkpt>
      <trkpt lat="48.03441" lon="3.26468">
        <ele>189.9</ele>
        <time>2020-10-15T09:29:41Z</time>
      </trkpt>
      <trkpt lat="48.03458" lon="3.26788">
        <ele>188</ele>
        <time>2020-10-15T09:29:41Z</time>
      </trkpt>
      <trkpt lat="48.03471" lon="3.26997">
        <ele>186</ele>
        <time>2020-10-15T09:29:41Z</time>
      </trkpt>
      <trkpt lat="48.03482" lon="3.27202">
        <ele>181.5</ele>
        <time>2020-10-15T09:29:41Z</time>
      </trkpt>
      <trkpt lat="48.03513" lon="3.2746">
        <ele>176</ele>
        <time>2020-10-15T09:29:41Z</time>
      </trkpt>
      <trkpt lat="48.03513" lon="3.2746">
        <ele>176</ele>
        <time>2020-10-15T09:29:41Z</time>
      </trkpt>
      <trkpt lat="48.03506" lon="3.27493">
        <ele>175.3</ele>
        <time>2020-10-15T09:29:41Z</time>
      </trkpt>
      <trkpt lat="48.03412" lon="3.27441">
        <ele>174.9</ele>
        <time>2020-10-15T09:29:41Z</time>
      </trkpt>
      <trkpt lat="48.03253" lon="3.27424">
        <ele>168.8</ele>
        <time>2020-10-15T09:29:41Z</time>
      </trkpt>
      <trkpt lat="48.03246" lon="3.27457">
        <ele>168.1</ele>
        <time>2020-10-15T09:29:41Z</time>
      </trkpt>
      <trkpt lat="48.03277" lon="3.27587">
        <ele>161.9</ele>
        <time>2020-10-15T09:29:41Z</time>
      </trkpt>
      <trkpt lat="48.0327" lon="3.27672">
        <ele>157.5</ele>
        <time>2020-10-15T09:29:41Z</time>
      </trkpt>
      <trkpt lat="48.03172" lon="3.27979">
        <ele>134</ele>
        <time>2020-10-15T09:29:41Z</time>
      </trkpt>
      <trkpt lat="48.03032" lon="3.28244">
        <ele>111.3</ele>
        <time>2020-10-15T09:29:41Z</time>
      </trkpt>
      <trkpt lat="48.02993" lon="3.28348">
        <ele>107.3</ele>
        <time>2020-10-15T09:29:41Z</time>
      </trkpt>
      <trkpt lat="48.02932" lon="3.28312">
        <ele>97.2</ele>
        <time>2020-10-15T09:29:41Z</time>
      </trkpt>
      <trkpt lat="48.0288" lon="3.28341">
        <ele>92.1</ele>
        <time>2020-10-15T09:29:41Z</time>
      </trkpt>
      <trkpt lat="48.02895" lon="3.28397">
        <ele>92.7</ele>
        <time>2020-10-15T09:29:41Z</time>
      </trkpt>
      <trkpt lat="48.02744" lon="3.28527">
        <ele>88.6</ele>
        <time>2020-10-15T09:29:41Z</time>
      </trkpt>
      <trkpt lat="48.02692" lon="3.28505">
        <ele>98.7</ele>
        <time>2020-10-15T09:29:41Z</time>
      </trkpt>
      <trkpt lat="48.02674" lon="3.2839">
        <ele>98.4</ele>
        <time>2020-10-15T09:29:41Z</time>
      </trkpt>
      <trkpt lat="48.02258" lon="3.28087">
        <ele>169.2</ele>
        <time>2020-10-15T09:29:41Z</time>
      </trkpt>
      <trkpt lat="48.02214" lon="3.28031">
        <ele>171.6</ele>
        <time>2020-10-15T09:29:41Z</time>
      </trkpt>
      <trkpt lat="48.02183" lon="3.27891">
        <ele>172.9</ele>
        <time>2020-10-15T09:29:41Z</time>
      </trkpt>
      <trkpt lat="48.02079" lon="3.27731">
        <ele>176.7</ele>
        <time>2020-10-15T09:29:41Z</time>
      </trkpt>
      <trkpt lat="48.02026" lon="3.27601">
        <ele>178.1</ele>
        <time>2020-10-15T09:29:41Z</time>
      </trkpt>
      <trkpt lat="48.01893" lon="3.27421">
        <ele>178.9</ele>
        <time>2020-10-15T09:29:41Z</time>
      </trkpt>
      <trkpt lat="48.01838" lon="3.27297">
        <ele>177.5</ele>
        <time>2020-10-15T09:29:41Z</time>
      </trkpt>
      <trkpt lat="48.01795" lon="3.2715">
        <ele>174</ele>
        <time>2020-10-15T09:29:41Z</time>
      </trkpt>
      <trkpt lat="48.01729" lon="3.2701">
        <ele>174.6</ele>
        <time>2020-10-15T09:29:41Z</time>
      </trkpt>
      <trkpt lat="48.01723" lon="3.2684">
        <ele>179.7</ele>
        <time>2020-10-15T09:29:41Z</time>
      </trkpt>
      <trkpt lat="48.0167" lon="3.26249">
        <ele>188</ele>
        <time>2020-10-15T09:29:41Z</time>
      </trkpt>
      <trkpt lat="48.01675" lon="3.26125">
        <ele>187</ele>
        <time>2020-10-15T09:29:41Z</time>
      </trkpt>
      <trkpt lat="48.01633" lon="3.25988">
        <ele>186.1</ele>
        <time>2020-10-15T09:29:41Z</time>
      </trkpt>
      <trkpt lat="48.01498" lon="3.2577">
        <ele>186.1</ele>
        <time>2020-10-15T09:29:41Z</time>
      </trkpt>
      <trkpt lat="48.01382" lon="3.25535">
        <ele>191</ele>
        <time>2020-10-15T09:29:41Z</time>
      </trkpt>
      <trkpt lat="48.01362" lon="3.2542">
        <ele>192</ele>
        <time>2020-10-15T09:29:41Z</time>
      </trkpt>
      <trkpt lat="48.01314" lon="3.25208">
        <ele>191</ele>
        <time>2020-10-15T09:29:41Z</time>
      </trkpt>
      <trkpt lat="48.01164" lon="3.24924">
        <ele>186.9</ele>
        <time>2020-10-15T09:29:41Z</time>
      </trkpt>
      <trkpt lat="48.01114" lon="3.24856">
        <ele>184.2</ele>
        <time>2020-10-15T09:29:41Z</time>
      </trkpt>
      <trkpt lat="48.01371" lon="3.24425">
        <ele>181.6</ele>
        <time>2020-10-15T09:29:41Z</time>
      </trkpt>
      <trkpt lat="48.01406" lon="3.24363">
        <ele>178.8</ele>
        <time>2020-10-15T09:29:41Z</time>
      </trkpt>
      <trkpt lat="48.01421" lon="3.24229">
        <ele>173.7</ele>
        <time>2020-10-15T09:29:41Z</time>
      </trkpt>
      <trkpt lat="48.01448" lon="3.2418">
        <ele>170.6</ele>
        <time>2020-10-15T09:29:41Z</time>
      </trkpt>
      <trkpt lat="48.01491" lon="3.24164">
        <ele>162.9</ele>
        <time>2020-10-15T09:29:41Z</time>
      </trkpt>
      <trkpt lat="48.01522" lon="3.23991">
        <ele>152.7</ele>
        <time>2020-10-15T09:29:41Z</time>
      </trkpt>
      <trkpt lat="48.01552" lon="3.2389">
        <ele>144.4</ele>
        <time>2020-10-15T09:29:41Z</time>
      </trkpt>
      <trkpt lat="48.01579" lon="3.23746">
        <ele>134.1</ele>
        <time>2020-10-15T09:29:41Z</time>
      </trkpt>
      <trkpt lat="48.01563" lon="3.23641">
        <ele>124.7</ele>
        <time>2020-10-15T09:29:41Z</time>
      </trkpt>
      <trkpt lat="48.01555" lon="3.23531">
        <ele>116.1</ele>
        <time>2020-10-15T09:29:41Z</time>
      </trkpt>
      <trkpt lat="48.01694" lon="3.23446">
        <ele>113</ele>
        <time>2020-10-15T09:29:41Z</time>
      </trkpt>
      <trkpt lat="48.01694" lon="3.23377">
        <ele>113</ele>
        <time>2020-10-15T09:29:41Z</time>
      </trkpt>
      <trkpt lat="48.01672" lon="3.23299">
        <ele>114</ele>
        <time>2020-10-15T09:29:41Z</time>
      </trkpt>
      <trkpt lat="48.01706" lon="3.23258">
        <ele>113.2</ele>
        <time>2020-10-15T09:29:41Z</time>
      </trkpt>
    </trkseg>
  </trk>
</gpx>